Weather in Kysyl-Syr

Russia / Sakha (Yakutia) Republic     62°31′49″N   129°45′46″E
temp.,
°C
wind,
m/s
gust,
m/s
humid.,
%
clouds,
%
prec.,
mm/h
press.,
hPa
HPBL,
m
19 april, mon
mon1900:00−14nw2297100 0.0 101715
03:00−12nnw2397100 0.0 101647
06:00−11nnw3696100 0.1 1015147
09:00−8nnw4792100 0.4 1015372
12:00−7nnw5788100 0.4 1015781
15:00−6nw4688100 0.8 1014813
18:00−6nw4885100 0.4 1015835
21:00−9wnw3890100 0.4 1016194
20 april, tue
tue2000:00−10w41091100 0.0 1015269
03:00−11w51190100 0.0 1015313
06:00−11wnw51290100 0.0 1014383
09:00−9wnw61085100 0.0 1014521
12:00−6wnw6776100 0.0 1014888
15:00−4wnw5670100 0.0 10141107
18:00−5wnw4780100 0.1 1015472
21:00−13w22945 0.1 101819
21 april, wed
wed2100:00−17w2299100 0.0 101915
03:00−18wsw22100100 0.0 102020
06:00−17w2299100 0.0 102026
09:00−8w2383100 0.0 1020338
12:00−5w236887 0.0 1020890
15:00−2wsw136289 0.0 10201079
18:00−3se228098 0.0 102050
21:00−12sse129034 0.0 102210
22 april, thu
thu2200:00−16ese119399 0.0 10239
03:00−14e1197100 0.0 102319
06:00−10sse239598 0.1 102369
09:00−5s2392100 1.2 1023273
12:00−1wsw3479100 0.1 1024928
15:00−2wnw5680100 0.2 1025879
18:00−4wnw5987100 0.1 1027799
21:00−10wnw379255 0.2 1029111
23 april, fri
fri2300:00−11w410895 0.0 1029197
03:00−12w5129212 0.0 1030228
06:00−11w513905 0.0 1030330
09:00−6w6118126 0.0 1030774
12:00−3wnw6968100 0.1 10281648
15:00−2w5875100 0.6 10271160
18:00−2w3681100 0.6 1026285
21:00−9wnw229521 0.6 102634